Language: 


Des rapports , des résumés tant et plus, au choix de chacun....


Données statistiques de la station
Quotidien Rapport Janvier 29, 2018 Unités:  Anglais    Métrique   les deux
« Précédent Jour
Suivant Jour »
Quotidien Hebdomadaire Mensuel Annuel Actuel
  Haut: Bas: Moyen:
Température: TemperatureC °F 4.4 °F 10.3 °F
Pt de rosée: DewpointC °F 4.0 °F 9 °F
Humidité: Humidity % 80 % 90 %
Vitesse du vent: WindSpeedKMH mph 0.0 mph 20.2 mph
Rafales: WindSpeedGustKMH mph - -
Vent:- - WSW
Pression: PressurehPa in 1023.9 in -
Précipitation: 0.5 in    
Historical Graphs
 
 
Données statistiques pour Janvier 29, 2018
Heure Température Point de rosée Pression Vent Vitesse du vent Refales Humidité Pluie (taux horaire)
TemperatureC °F DewpointC °F PressurehPa in Calm     Humidity % HourlyPrecipMM in
00:02 11.0 °F 11.0 °F 1031.0 in WSW 23.8 mph 27.0 mph 96 % 0.0 in
00:07 11.1 °F 11.0 °F 1031.0 in West 16.3 mph 27.7 mph 96 % 0.0 in
00:12 11.1 °F 10.0 °F 1031.0 in WSW 21.9 mph 27.7 mph 95 % 0.0 in
00:17 11.1 °F 10.0 °F 1031.0 in WSW 16.9 mph 31.7 mph 95 % 0.0 in
00:22 11.2 °F 10.0 °F 1031.0 in WSW 18.3 mph 31.7 mph 94 % 0.0 in
00:27 11.2 °F 10.0 °F 1031.0 in West 21.6 mph 30.9 mph 94 % 0.0 in
00:32 11.2 °F 10.0 °F 1030.0 in WSW 21.2 mph 28.5 mph 94 % 0.0 in
00:37 11.2 °F 10.0 °F 1030.0 in WSW 24.8 mph 28.5 mph 93 % 0.0 in
00:42 11.2 °F 10.0 °F 1030.0 in West 25.6 mph 31.7 mph 93 % 0.0 in
00:47 11.2 °F 10.0 °F 1030.0 in WSW 15.8 mph 31.7 mph 93 % 0.0 in
00:52 11.2 °F 10.0 °F 1030.0 in WSW 26.2 mph 28.5 mph 93 % 0.0 in
00:57 11.2 °F 10.0 °F 1030.0 in WSW 22.7 mph 31.4 mph 93 % 0.0 in
01:03 11.2 °F 10.0 °F 1030.0 in West 20.6 mph 31.4 mph 93 % 0.0 in
01:08 11.3 °F 10.0 °F 1030.0 in WSW 27.0 mph 33.5 mph 93 % 0.0 in
01:13 11.3 °F 10.0 °F 1030.0 in WSW 21.2 mph 33.5 mph 93 % 0.0 in
01:18 11.2 °F 10.0 °F 1030.0 in WSW 20.1 mph 28.0 mph 93 % 0.0 in
01:23 11.2 °F 10.0 °F 1030.0 in West 30.9 mph 30.9 mph 93 % 0.0 in
01:28 11.1 °F 10.0 °F 1030.0 in WSW 31.4 mph 31.4 mph 93 % 0.0 in
01:33 11.1 °F 10.0 °F 1030.0 in SW 16.3 mph 31.4 mph 93 % 0.0 in
01:38 11.1 °F 10.0 °F 1030.0 in WSW 24.5 mph 31.4 mph 93 % 0.0 in
01:43 11.0 °F 10.0 °F 1030.0 in WSW 28.5 mph 28.5 mph 93 % 0.0 in
01:48 11.0 °F 10.0 °F 1030.0 in West 22.7 mph 30.9 mph 93 % 0.0 in
01:53 11.0 °F 10.0 °F 1030.0 in WSW 16.9 mph 30.9 mph 92 % 0.0 in
01:58 11.0 °F 10.0 °F 1030.0 in WSW 21.2 mph 24.8 mph 92 % 0.0 in
02:03 10.9 °F 10.0 °F 1030.0 in WSW 15.8 mph 27.4 mph 93 % 0.0 in
02:08 10.9 °F 10.0 °F 1030.0 in WSW 16.9 mph 27.4 mph 93 % 0.0 in
02:13 10.9 °F 10.0 °F 1030.0 in WSW 23.8 mph 31.7 mph 92 % 0.0 in
02:18 10.9 °F 10.0 °F 1030.0 in WSW 20.1 mph 31.7 mph 92 % 0.0 in
02:23 10.9 °F 10.0 °F 1030.0 in WSW 23.3 mph 28.5 mph 92 % 0.0 in
02:29 10.9 °F 10.0 °F 1030.0 in WSW 22.4 mph 35.6 mph 92 % 0.0 in
02:34 10.8 °F 9.0 °F 1030.0 in WSW 20.1 mph 35.6 mph 92 % 0.0 in
02:39 10.8 °F 9.0 °F 1030.0 in WSW 20.9 mph 32.0 mph 92 % 0.0 in
02:44 10.8 °F 10.0 °F 1029.0 in West 24.5 mph 36.0 mph 93 % 0.0 in
02:49 10.8 °F 10.0 °F 1029.0 in WSW 27.0 mph 36.0 mph 93 % 0.0 in
02:54 10.8 °F 10.0 °F 1029.0 in West 20.6 mph 28.5 mph 93 % 0.0 in
02:59 10.8 °F 10.0 °F 1029.0 in West 23.8 mph 28.5 mph 93 % 0.0 in
03:04 10.8 °F 10.0 °F 1029.0 in WSW 12.2 mph 26.2 mph 93 % 0.0 in
03:09 10.8 °F 10.0 °F 1029.0 in West 25.9 mph 28.0 mph 93 % 0.0 in
03:14 10.8 °F 10.0 °F 1029.0 in WSW 20.6 mph 28.5 mph 93 % 0.0 in
03:19 10.8 °F 10.0 °F 1029.0 in West 24.8 mph 31.4 mph 94 % 0.0 in
03:24 10.8 °F 10.0 °F 1029.0 in WSW 23.8 mph 31.4 mph 94 % 0.0 in
03:29 10.8 °F 10.0 °F 1029.0 in West 13.0 mph 29.1 mph 93 % 0.0 in
03:34 10.8 °F 10.0 °F 1029.0 in WSW 27.7 mph 38.5 mph 93 % 0.0 in
03:39 10.9 °F 10.0 °F 1029.0 in WSW 31.7 mph 38.5 mph 93 % 0.0 in
03:44 10.9 °F 10.0 °F 1029.0 in West 24.8 mph 36.4 mph 93 % 0.0 in
03:49 10.9 °F 10.0 °F 1029.0 in WSW 29.1 mph 37.5 mph 92 % 0.0 in
03:54 10.9 °F 10.0 °F 1029.0 in WSW 23.3 mph 37.5 mph 92 % 0.0 in
03:59 10.9 °F 10.0 °F 1029.0 in WSW 28.5 mph 37.5 mph 91 % 0.0 in
04:04 11.0 °F 10.0 °F 1029.0 in West 20.1 mph 31.7 mph 91 % 0.0 in
04:09 11.0 °F 9.0 °F 1029.0 in WSW 25.3 mph 36.0 mph 90 % 0.0 in
04:14 11.0 °F 9.0 °F 1029.0 in West 17.2 mph 36.0 mph 90 % 0.0 in
04:19 11.0 °F 9.0 °F 1029.0 in WSW 25.9 mph 30.9 mph 90 % 0.0 in
04:24 11.0 °F 9.0 °F 1029.0 in WSW 16.9 mph 34.6 mph 90 % 0.0 in
04:29 10.9 °F 10.0 °F 1029.0 in WSW 16.9 mph 34.6 mph 91 % 0.0 in
04:34 10.9 °F 10.0 °F 1029.0 in West 17.7 mph 30.6 mph 92 % 0.0 in
04:39 10.9 °F 10.0 °F 1029.0 in WSW 29.1 mph 32.0 mph 92 % 0.0 in
04:44 10.9 °F 10.0 °F 1029.0 in WSW 20.6 mph 40.7 mph 92 % 0.0 in
04:49 10.9 °F 10.0 °F 1029.0 in West 38.1 mph 40.7 mph 92 % 0.0 in
04:54 10.9 °F 10.0 °F 1029.0 in West 31.7 mph 38.1 mph 92 % 0.0 in
04:59 10.9 °F 10.0 °F 1029.0 in WSW 25.3 mph 38.5 mph 92 % 0.0 in
05:05 10.9 °F 10.0 °F 1029.0 in WSW 27.4 mph 40.7 mph 91 % 0.0 in
05:10 10.9 °F 10.0 °F 1029.0 in WSW 27.7 mph 40.7 mph 91 % 0.0 in
05:15 11.0 °F 9.0 °F 1028.0 in West 16.9 mph 43.9 mph 89 % 0.0 in
05:20 11.0 °F 9.0 °F 1028.0 in West 39.6 mph 43.9 mph 89 % 0.0 in
05:25 11.0 °F 9.0 °F 1028.0 in West 32.8 mph 41.0 mph 89 % 0.0 in
05:30 11.0 °F 9.0 °F 1028.0 in WSW 27.0 mph 40.4 mph 88 % 0.0 in
05:35 11.0 °F 9.0 °F 1028.0 in WSW 31.7 mph 38.9 mph 89 % 0.0 in
05:40 10.9 °F 9.0 °F 1028.0 in WSW 21.9 mph 36.0 mph 90 % 0.0 in
05:45 10.9 °F 10.0 °F 1028.0 in WSW 26.7 mph 34.3 mph 91 % 0.0 in
05:50 10.9 °F 10.0 °F 1028.0 in WSW 20.1 mph 34.3 mph 91 % 0.0 in
05:55 10.8 °F 9.0 °F 1028.0 in WSW 28.0 mph 29.1 mph 92 % 0.0 in
06:00 10.7 °F 10.0 °F 1028.0 in WSW 24.8 mph 31.4 mph 93 % 0.0 in
06:05 10.7 °F 10.0 °F 1028.0 in WSW 17.7 mph 32.0 mph 94 % 0.0 in
06:10 10.6 °F 10.0 °F 1028.0 in West 21.6 mph 32.0 mph 94 % 0.0 in
06:15 10.6 °F 10.0 °F 1028.0 in WSW 15.4 mph 27.7 mph 95 % 0.0 in
06:20 10.6 °F 10.0 °F 1028.0 in WSW 19.8 mph 27.7 mph 95 % 0.0 in
06:25 10.6 °F 10.0 °F 1028.0 in West 17.7 mph 28.8 mph 94 % 0.0 in
06:30 10.7 °F 10.0 °F 1028.0 in West 19.5 mph 28.8 mph 94 % 0.0 in
06:35 10.7 °F 10.0 °F 1028.0 in WSW 18.0 mph 28.0 mph 93 % 0.0 in
06:40 10.7 °F 10.0 °F 1028.0 in WSW 23.3 mph 31.7 mph 93 % 0.0 in
06:45 10.7 °F 10.0 °F 1029.0 in WSW 12.2 mph 31.7 mph 94 % 0.0 in
06:50 10.6 °F 10.0 °F 1029.0 in West 28.8 mph 28.8 mph 94 % 0.0 in
06:55 10.6 °F 10.0 °F 1029.0 in WSW 21.6 mph 35.2 mph 95 % 0.0 in
07:00 10.5 °F 10.0 °F 1029.0 in WSW 20.9 mph 35.2 mph 95 % 0.0 in
07:06 10.5 °F 10.0 °F 1029.0 in West 26.2 mph 28.0 mph 94 % 0.0 in
07:11 10.6 °F 10.0 °F 1029.0 in WSW 27.7 mph 28.0 mph 94 % 0.0 in
07:16 10.6 °F 10.0 °F 1028.0 in WSW 15.4 mph 30.9 mph 94 % 0.0 in
07:21 10.5 °F 10.0 °F 1028.0 in WSW 19.5 mph 30.9 mph 94 % 0.0 in
07:26 10.5 °F 10.0 °F 1028.0 in West 36.4 mph 51.8 mph 93 % 0.0 in
07:31 10.6 °F 9.0 °F 1029.0 in WSW 20.6 mph 51.8 mph 89 % 0.0 in
07:36 10.6 °F 9.0 °F 1029.0 in West 27.4 mph 43.9 mph 89 % 0.0 in
07:41 10.6 °F 9.0 °F 1029.0 in West 20.1 mph 33.8 mph 89 % 0.0 in
07:46 10.6 °F 9.0 °F 1029.0 in WSW 15.4 mph 35.2 mph 89 % 0.0 in
07:51 10.6 °F 9.0 °F 1029.0 in WSW 35.6 mph 42.5 mph 89 % 0.0 in
07:56 10.7 °F 9.0 °F 1029.0 in SW 22.4 mph 42.5 mph 87 % 0.0 in
08:01 10.7 °F 9.0 °F 1027.0 in WSW 28.0 mph 41.7 mph 86 % 0.0 in
08:06 10.7 °F 9.0 °F 1027.0 in SW 35.2 mph 41.4 mph 86 % 0.0 in
08:11 10.7 °F 9.0 °F 1027.0 in West 24.5 mph 41.4 mph 87 % 0.0 in
08:16 10.7 °F 9.0 °F 1027.0 in WSW 25.3 mph 37.8 mph 86 % 0.0 in
08:21 10.7 °F 9.0 °F 1027.0 in SSW 24.8 mph 37.5 mph 87 % 0.0 in
08:26 10.7 °F 9.0 °F 1027.0 in WSW 24.8 mph 37.5 mph 86 % 0.0 in
08:31 10.7 °F 9.0 °F 1027.0 in WSW 20.1 mph 36.4 mph 86 % 0.0 in
08:36 10.7 °F 9.0 °F 1027.0 in WSW 9.7 mph 39.3 mph 85 % 0.0 in
08:41 10.7 °F 9.0 °F 1027.0 in WSW 25.9 mph 39.3 mph 85 % 0.0 in
08:46 10.6 °F 9.0 °F 1028.0 in West 24.8 mph 35.6 mph 85 % 0.0 in
08:51 10.7 °F 9.0 °F 1028.0 in WSW 26.7 mph 34.6 mph 85 % 0.0 in
08:56 10.7 °F 9.0 °F 1028.0 in West 19.5 mph 38.1 mph 85 % 0.0 in
09:01 10.7 °F 9.0 °F 1028.0 in West 27.4 mph 38.9 mph 85 % 0.0 in
09:06 10.6 °F 9.0 °F 1028.0 in WSW 21.9 mph 38.9 mph 85 % 0.0 in
09:11 10.6 °F 9.0 °F 1028.0 in WSW 15.8 mph 31.4 mph 85 % 0.0 in
09:16 10.6 °F 9.0 °F 1028.0 in West 32.0 mph 32.0 mph 85 % 0.0 in
09:21 10.7 °F 9.0 °F 1028.0 in West 28.5 mph 32.0 mph 85 % 0.0 in
09:26 10.7 °F 9.0 °F 1028.0 in WSW 17.2 mph 34.3 mph 85 % 0.0 in
09:31 10.7 °F 9.0 °F 1027.0 in West 29.9 mph 34.3 mph 85 % 0.0 in
09:36 10.7 °F 9.0 °F 1027.0 in West 23.8 mph 42.2 mph 85 % 0.0 in
09:42 10.7 °F 9.0 °F 1027.0 in West 19.5 mph 42.2 mph 85 % 0.0 in
09:47 10.8 °F 9.0 °F 1027.0 in West 25.9 mph 40.4 mph 85 % 0.0 in
09:52 10.8 °F 9.0 °F 1027.0 in West 16.3 mph 37.8 mph 85 % 0.0 in
09:57 10.8 °F 9.0 °F 1027.0 in WSW 24.8 mph 34.6 mph 85 % 0.0 in
10:02 10.8 °F 9.0 °F 1027.0 in WSW 17.7 mph 34.3 mph 85 % 0.0 in
10:07 10.8 °F 9.0 °F 1027.0 in WSW 29.9 mph 34.3 mph 85 % 0.0 in
10:12 10.8 °F 9.0 °F 1027.0 in West 25.3 mph 35.6 mph 85 % 0.0 in
10:17 10.8 °F 9.0 °F 1027.0 in WSW 16.3 mph 35.6 mph 85 % 0.0 in
10:22 10.8 °F 9.0 °F 1027.0 in WSW 20.6 mph 29.1 mph 85 % 0.0 in
10:28 10.8 °F 9.0 °F 1027.0 in West 25.6 mph 32.3 mph 85 % 0.0 in
10:33 10.9 °F 9.0 °F 1027.0 in WSW 19.8 mph 39.6 mph 85 % 0.0 in
10:38 10.9 °F 9.0 °F 1027.0 in WSW 29.9 mph 39.6 mph 85 % 0.0 in
10:43 10.9 °F 9.0 °F 1027.0 in WSW 20.1 mph 36.4 mph 85 % 0.0 in
10:48 10.9 °F 9.0 °F 1027.0 in WSW 42.5 mph 42.5 mph 85 % 0.0 in
10:53 11.0 °F 9.0 °F 1027.0 in WSW 32.0 mph 42.5 mph 84 % 0.0 in
10:58 11.0 °F 9.0 °F 1027.0 in WSW 41.4 mph 42.5 mph 84 % 0.0 in
11:03 11.0 °F 9.0 °F 1027.0 in West 39.6 mph 41.4 mph 84 % 0.0 in
11:08 11.0 °F 8.0 °F 1027.0 in WSW 27.0 mph 41.4 mph 83 % 0.0 in
11:13 10.9 °F 9.0 °F 1027.0 in SSW 19.5 mph 38.1 mph 84 % 0.0 in
11:18 10.9 °F 9.0 °F 1027.0 in West 37.8 mph 39.6 mph 84 % 0.0 in
11:23 10.9 °F 9.0 °F 1027.0 in WSW 27.7 mph 39.6 mph 84 % 0.0 in
11:28 11.0 °F 9.0 °F 1027.0 in West 35.6 mph 37.8 mph 84 % 0.0 in
11:33 11.0 °F 9.0 °F 1027.0 in West 26.7 mph 44.2 mph 84 % 0.0 in
11:38 11.0 °F 8.0 °F 1027.0 in WSW 28.0 mph 44.2 mph 83 % 0.0 in
11:43 11.1 °F 8.0 °F 1027.0 in West 16.6 mph 42.2 mph 81 % 0.0 in
11:48 11.1 °F 8.0 °F 1027.0 in WSW 37.5 mph 42.2 mph 81 % 0.0 in
11:53 11.1 °F 8.0 °F 1027.0 in West 24.8 mph 42.5 mph 80 % 0.0 in
11:58 11.1 °F 8.0 °F 1027.0 in WSW 36.4 mph 42.5 mph 81 % 0.0 in
12:03 11.0 °F 9.0 °F 1027.0 in WSW 30.9 mph 41.7 mph 84 % 0.0 in
12:08 10.8 °F 9.0 °F 1027.0 in West 25.6 mph 41.7 mph 86 % 0.0 in
12:13 10.7 °F 9.0 °F 1027.0 in SSW 19.8 mph 38.1 mph 88 % 0.0 in
12:18 10.7 °F 9.0 °F 1027.0 in West 28.5 mph 38.1 mph 89 % 0.0 in
12:23 10.8 °F 9.0 °F 1027.0 in West 25.3 mph 32.0 mph 89 % 0.0 in
12:28 10.8 °F 9.0 °F 1027.0 in WSW 23.3 mph 36.4 mph 89 % 0.0 in
12:33 10.8 °F 9.0 °F 1028.0 in West 27.0 mph 36.7 mph 89 % 0.0 in
12:38 10.6 °F 9.0 °F 1028.0 in West 20.9 mph 36.7 mph 90 % 0.0 in
12:43 10.5 °F 9.0 °F 1027.0 in WSW 32.0 mph 36.4 mph 91 % 0.0 in
12:48 10.4 °F 9.0 °F 1027.0 in West 27.4 mph 36.4 mph 92 % 0.0 in
12:53 10.4 °F 9.0 °F 1027.0 in West 25.6 mph 37.5 mph 93 % 0.0 in
12:59 10.4 °F 9.0 °F 1027.0 in WSW 23.8 mph 37.5 mph 93 % 0.0 in
13:04 10.6 °F 9.0 °F 1027.0 in WSW 25.3 mph 36.0 mph 92 % 0.0 in
13:09 10.6 °F 9.0 °F 1027.0 in WSW 27.4 mph 33.8 mph 92 % 0.0 in
13:14 10.7 °F 9.0 °F 1027.0 in WSW 37.8 mph 40.4 mph 91 % 0.0 in
13:19 10.7 °F 9.0 °F 1027.0 in WSW 25.6 mph 40.4 mph 89 % 0.0 in
13:24 10.8 °F 9.0 °F 1027.0 in West 28.0 mph 34.3 mph 88 % 0.0 in
13:29 10.9 °F 9.0 °F 1027.0 in West 20.6 mph 39.6 mph 86 % 0.0 in
13:34 11.0 °F 9.0 °F 1027.0 in WSW 20.9 mph 39.6 mph 85 % 0.0 in
13:39 11.1 °F 9.0 °F 1027.0 in West 28.0 mph 37.8 mph 85 % 0.0 in
13:44 11.1 °F 9.0 °F 1027.0 in WSW 23.3 mph 36.7 mph 84 % 0.0 in
13:49 11.2 °F 9.0 °F 1026.0 in WSW 36.7 mph 36.7 mph 84 % 0.0 in
13:54 11.2 °F 9.0 °F 1026.0 in WSW 19.8 mph 36.7 mph 83 % 0.0 in
13:59 11.3 °F 9.0 °F 1026.0 in West 21.6 mph 32.0 mph 83 % 0.0 in
14:04 11.3 °F 9.0 °F 1026.0 in WSW 25.9 mph 32.0 mph 83 % 0.0 in
14:09 11.4 °F 9.0 °F 1026.0 in WSW 20.6 mph 37.8 mph 82 % 0.0 in
14:14 11.5 °F 9.0 °F 1024.9 in West 21.2 mph 37.8 mph 83 % 0.0 in
14:19 11.5 °F 9.0 °F 1024.9 in WSW 26.7 mph 36.4 mph 83 % 0.0 in
14:25 11.5 °F 9.0 °F 1024.9 in WSW 42.8 mph 42.8 mph 83 % 0.0 in
14:30 11.4 °F 9.0 °F 1024.9 in WSW 36.0 mph 42.8 mph 83 % 0.0 in
14:35 11.5 °F 9.0 °F 1024.9 in WSW 37.5 mph 41.7 mph 83 % 0.0 in
14:40 11.5 °F 9.0 °F 1024.9 in WSW 31.7 mph 40.7 mph 84 % 0.0 in
14:45 11.5 °F 9.0 °F 1024.9 in WSW 26.7 mph 36.4 mph 84 % 0.0 in
14:50 11.6 °F 9.0 °F 1024.9 in West 31.7 mph 36.4 mph 84 % 0.0 in
14:55 11.7 °F 9.0 °F 1024.9 in WSW 20.9 mph 42.5 mph 84 % 0.0 in
15:00 11.7 °F 9.0 °F 1023.9 in WSW 23.3 mph 42.5 mph 84 % 0.0 in
15:05 11.7 °F 9.0 °F 1023.9 in WSW 36.4 mph 41.7 mph 84 % 0.0 in
15:10 11.6 °F 9.0 °F 1023.9 in WSW 32.0 mph 48.3 mph 84 % 0.0 in
15:15 11.5 °F 9.0 °F 1024.9 in West 29.9 mph 48.3 mph 84 % 0.0 in
15:20 11.5 °F 9.0 °F 1024.9 in WSW 42.2 mph 42.2 mph 84 % 0.0 in
15:25 11.5 °F 9.0 °F 1024.9 in WSW 36.7 mph 42.2 mph 85 % 0.0 in
15:30 11.5 °F 9.0 °F 1024.9 in WSW 32.3 mph 38.9 mph 85 % 0.0 in
15:35 11.6 °F 9.0 °F 1024.9 in WSW 20.6 mph 46.8 mph 84 % 0.0 in
15:40 11.6 °F 9.0 °F 1024.9 in WSW 19.8 mph 47.1 mph 84 % 0.0 in
15:45 11.6 °F 9.0 °F 1024.9 in WSW 28.5 mph 47.1 mph 84 % 0.0 in
15:50 11.5 °F 9.0 °F 1024.9 in West 36.0 mph 43.1 mph 85 % 0.0 in
15:55 11.5 °F 9.0 °F 1024.9 in West 27.7 mph 43.1 mph 85 % 0.0 in
16:00 11.4 °F 9.0 °F 1023.9 in West 37.0 mph 48.3 mph 85 % 0.0 in
16:05 11.4 °F 9.0 °F 1023.9 in WSW 35.6 mph 48.3 mph 85 % 0.0 in
16:10 11.4 °F 9.0 °F 1023.9 in West 42.8 mph 43.1 mph 85 % 0.0 in
16:15 11.4 °F 9.0 °F 1024.9 in West 41.0 mph 44.2 mph 85 % 0.0 in
16:20 11.3 °F 9.0 °F 1024.9 in West 24.8 mph 44.2 mph 86 % 0.0 in
16:25 11.3 °F 9.0 °F 1024.9 in West 28.0 mph 42.2 mph 86 % 0.0 in
16:30 11.2 °F 9.0 °F 1023.9 in WSW 23.8 mph 37.8 mph 87 % 0.0 in
16:35 11.2 °F 9.0 °F 1023.9 in WSW 22.4 mph 41.0 mph 88 % 0.0 in
16:40 11.1 °F 9.0 °F 1023.9 in West 25.3 mph 41.0 mph 88 % 0.0 in
16:45 11.1 °F 9.0 °F 1024.9 in WSW 17.7 mph 37.8 mph 89 % 0.0 in
16:50 10.9 °F 10.0 °F 1024.9 in WSW 32.0 mph 37.8 mph 91 % 0.0 in
16:55 10.9 °F 10.0 °F 1024.9 in West 17.7 mph 36.7 mph 92 % 0.0 in
17:00 10.8 °F 10.0 °F 1024.9 in West 25.3 mph 36.7 mph 93 % 0.0 in
17:05 10.7 °F 10.0 °F 1024.9 in WSW 43.1 mph 43.1 mph 94 % 0.0 in
17:10 10.7 °F 10.0 °F 1024.9 in West 24.5 mph 43.1 mph 94 % 0.0 in
17:16 10.7 °F 10.0 °F 1024.9 in West 23.8 mph 43.1 mph 95 % 0.0 in
17:21 10.7 °F 10.0 °F 1024.9 in WSW 24.8 mph 38.5 mph 95 % 0.0 in
17:26 10.7 °F 10.0 °F 1024.9 in West 17.7 mph 36.4 mph 95 % 0.0 in
17:31 10.8 °F 10.0 °F 1024.9 in West 23.3 mph 36.4 mph 94 % 0.0 in
17:36 10.8 °F 10.0 °F 1024.9 in WSW 35.2 mph 35.2 mph 94 % 0.0 in
17:41 10.9 °F 10.0 °F 1024.9 in WSW 16.6 mph 38.1 mph 94 % 0.0 in
17:46 10.9 °F 10.0 °F 1024.9 in West 17.7 mph 38.1 mph 94 % 0.0 in
17:51 10.9 °F 10.0 °F 1024.9 in WNW 25.3 mph 36.7 mph 94 % 0.0 in
17:56 10.9 °F 10.0 °F 1024.9 in WSW 32.0 mph 38.9 mph 94 % 0.0 in
18:01 11.0 °F 10.0 °F 1026.0 in WSW 20.6 mph 38.9 mph 93 % 0.0 in
18:06 10.9 °F 10.0 °F 1026.0 in West 12.6 mph 38.9 mph 94 % 0.0 in
18:11 10.9 °F 10.0 °F 1026.0 in West 23.8 mph 31.7 mph 94 % 0.0 in
18:16 10.9 °F 10.0 °F 1026.0 in WSW 17.7 mph 31.7 mph 94 % 0.0 in
18:21 10.9 °F 10.0 °F 1026.0 in West 17.2 mph 30.9 mph 94 % 0.0 in
18:26 10.9 °F 10.0 °F 1026.0 in WSW 26.7 mph 31.4 mph 95 % 0.0 in
18:31 10.9 °F 10.0 °F 1026.0 in West 20.6 mph 31.4 mph 95 % 0.0 in
18:36 10.9 °F 10.0 °F 1026.0 in West 12.2 mph 31.4 mph 95 % 0.0 in
18:41 10.9 °F 10.0 °F 1026.0 in West 25.6 mph 31.4 mph 95 % 0.0 in
18:46 10.9 °F 10.0 °F 1026.0 in West 20.9 mph 29.1 mph 95 % 0.0 in
18:51 10.9 °F 11.0 °F 1026.0 in West 16.6 mph 29.1 mph 96 % 0.0 in
18:56 10.9 °F 11.0 °F 1026.0 in West 20.6 mph 28.0 mph 96 % 0.0 in
19:01 10.9 °F 11.0 °F 1026.0 in West 9.7 mph 28.0 mph 96 % 0.0 in
19:06 10.9 °F 11.0 °F 1026.0 in North 14.0 mph 27.7 mph 96 % 0.0 in
19:11 10.9 °F 11.0 °F 1026.0 in North 9.3 mph 14.0 mph 97 % 0.0 in
19:16 10.5 °F 10.0 °F 1027.0 in NW 4.3 mph 21.2 mph 94 % 0.3 in
19:21 10.2 °F 9.0 °F 1027.0 in NNW 5.0 mph 21.2 mph 93 % 0.5 in
19:26 10.0 °F 9.0 °F 1027.0 in NE 6.1 mph 14.0 mph 92 % 0.5 in
19:31 9.9 °F 9.0 °F 1027.0 in NNE 4.7 mph 14.0 mph 93 % 0.5 in
19:36 9.8 °F 9.0 °F 1027.0 in NW 4.0 mph 11.9 mph 93 % 0.5 in
19:41 9.7 °F 9.0 °F 1027.0 in NW 6.1 mph 11.9 mph 94 % 0.5 in
19:46 9.7 °F 9.0 °F 1027.0 in West 4.0 mph 11.6 mph 94 % 0.5 in
19:51 9.7 °F 9.0 °F 1027.0 in WNW 3.5 mph 15.4 mph 94 % 0.5 in
19:56 9.6 °F 9.0 °F 1027.0 in NNW 11.9 mph 15.4 mph 95 % 0.5 in
20:01 9.6 °F 9.0 °F 1027.0 in NW 10.1 mph 12.6 mph 95 % 0.5 in
20:06 9.5 °F 9.0 °F 1027.0 in West 7.9 mph 11.9 mph 95 % 0.5 in
20:11 9.5 °F 9.0 °F 1027.0 in West 3.2 mph 10.1 mph 95 % 0.3 in
20:16 9.4 °F 9.0 °F 1028.0 in WNW 5.5 mph 6.4 mph 95 % 0.3 in
20:21 9.4 °F 9.0 °F 1028.0 in WNW 6.4 mph 10.5 mph 95 % 0.0 in
20:26 9.3 °F 9.0 °F 1028.0 in WNW 1.8 mph 10.5 mph 95 % 0.0 in
20:32 9.3 °F 9.0 °F 1028.0 in Calm   12.2 mph 95 % 0.0 in
20:37 9.3 °F 9.0 °F 1028.0 in Calm   12.2 mph 95 % 0.0 in
20:42 9.2 °F 9.0 °F 1028.0 in NNW 1.4 mph 12.2 mph 95 % 0.0 in
20:47 9.2 °F 9.0 °F 1028.0 in WNW 3.2 mph 7.9 mph 95 % 0.0 in
20:52 9.1 °F 9.0 °F 1028.0 in Calm   7.9 mph 95 % 0.0 in
20:57 9.1 °F 9.0 °F 1028.0 in Calm   6.9 mph 95 % 0.0 in
21:02 9.0 °F 9.0 °F 1029.0 in Calm   7.6 mph 95 % 0.0 in
21:07 8.9 °F 9.0 °F 1029.0 in Calm   7.6 mph 95 % 0.0 in
21:12 8.7 °F 8.0 °F 1029.0 in Calm   6.9 mph 95 % 0.0 in
21:17 8.6 °F 8.0 °F 1029.0 in Calm   5.5 mph 95 % 0.0 in
21:22 8.5 °F 8.0 °F 1029.0 in WNW 6.1 mph 6.1 mph 95 % 0.0 in
21:27 8.3 °F 8.0 °F 1029.0 in Calm   6.1 mph 95 % 0.0 in
21:32 8.2 °F 8.0 °F 1029.0 in Calm   6.1 mph 95 % 0.0 in
21:37 8.0 °F 8.0 °F 1029.0 in West 4.7 mph 6.1 mph 95 % 0.0 in
21:42 7.8 °F 7.0 °F 1029.0 in Calm   6.1 mph 95 % 0.0 in
21:47 7.7 °F 7.0 °F 1029.0 in Calm   4.7 mph 95 % 0.0 in
21:52 7.4 °F 7.0 °F 1029.0 in Calm     95 % 0.0 in
21:57 7.3 °F 7.0 °F 1029.0 in Calm   5.5 mph 96 % 0.0 in
22:02 7.2 °F 7.0 °F 1029.0 in Calm   5.5 mph 96 % 0.0 in
22:07 7.1 °F 7.0 °F 1029.0 in Calm     96 % 0.0 in
22:12 7.1 °F 7.0 °F 1029.0 in Calm   4.7 mph 97 % 0.0 in
22:17 7.0 °F 7.0 °F 1029.0 in Calm   4.7 mph 97 % 0.0 in
22:22 7.0 °F 7.0 °F 1029.0 in Calm   2.1 mph 97 % 0.0 in
22:27 6.8 °F 6.0 °F 1029.0 in West 2.6 mph 3.5 mph 97 % 0.0 in
22:32 6.7 °F 6.0 °F 1029.0 in Calm   6.4 mph 97 % 0.0 in
22:37 6.4 °F 6.0 °F 1029.0 in Calm   6.4 mph 97 % 0.0 in
22:42 6.2 °F 6.0 °F 1029.0 in Calm     97 % 0.0 in
22:47 6.1 °F 6.0 °F 1029.0 in Calm     97 % 0.0 in
22:52 6.0 °F 6.0 °F 1029.0 in Calm   3.5 mph 97 % 0.0 in
22:57 5.9 °F 6.0 °F 1029.0 in Calm   4.0 mph 97 % 0.0 in
23:03 5.8 °F 6.0 °F 1029.0 in Calm   5.0 mph 97 % 0.0 in
23:08 5.7 °F 6.0 °F 1029.0 in Calm   5.0 mph 98 % 0.0 in
23:13 5.7 °F 6.0 °F 1029.0 in Calm     98 % 0.0 in
23:18 5.6 °F 6.0 °F 1030.0 in West 1.4 mph 5.0 mph 98 % 0.0 in
23:23 5.5 °F 6.0 °F 1030.0 in Calm   5.0 mph 98 % 0.0 in
23:28 5.4 °F 6.0 °F 1030.0 in Calm   2.1 mph 98 % 0.0 in
23:33 5.3 °F 6.0 °F 1029.0 in Calm     98 % 0.0 in
23:38 5.2 °F 5.0 °F 1029.0 in Calm     98 % 0.0 in
23:43 4.8 °F 5.0 °F 1029.0 in Calm   5.0 mph 98 % 0.0 in
23:48 4.6 °F 4.0 °F 1029.0 in Calm   5.0 mph 97 % 0.0 in
23:53 4.5 °F 4.0 °F 1029.0 in Calm     97 % 0.0 in
23:58 4.4 °F 4.0 °F 1029.0 in Calm     97 % 0.0 in
Le Gheer Warneton
Courtoisie de Weather Underground - 2.25 mb

Mise a jour : 25/02/2018 18:20:12
Généré par Cumulus 1.9.4 (1099)